Time,TemperatureF,DewpointF,PressureIn,WindDirection,WindDirectionDegrees,WindSpeedMPH,WindSpeedGustMPH,Humidity,HourlyPrecipIn,Conditions,Clouds,dailyrainin,SoftwareType,DateUTC
2013-02-14 00:00:00,50.3,47.5,29.81,West,270,10.0,10.0,90,0.00,,---,0.00,VWS V14.00,2013-02-14 05:00:00,
2013-02-14 00:05:00,50.4,47.3,29.82,West,269,8.0,11.0,89,0.00,,---,0.00,VWS V14.00,2013-02-14 05:05:00,
2013-02-14 00:10:00,50.3,47.2,29.82,West,268,9.0,11.0,89,0.00,,---,0.00,VWS V14.00,2013-02-14 05:10:00,
2013-02-14 00:15:00,50.3,47.2,29.83,West,260,6.0,11.0,89,0.00,,---,0.00,VWS V14.00,2013-02-14 05:15:00,
2013-02-14 00:20:00,50.2,47.4,29.83,West,266,9.0,11.0,90,0.00,,---,0.00,VWS V14.00,2013-02-14 05:20:00,
2013-02-14 00:25:00,50.1,47.3,29.83,West,274,7.0,11.0,90,0.00,,---,0.00,VWS V14.00,2013-02-14 05:25:00,
2013-02-14 00:30:00,50.1,47.3,29.83,West,279,8.0,12.0,90,0.00,,---,0.00,VWS V14.00,2013-02-14 05:30:00,
2013-02-14 00:35:00,50.0,47.2,29.83,West,274,6.0,12.0,90,0.00,,---,0.00,VWS V14.00,2013-02-14 05:35:00,
2013-02-14 00:40:00,50.0,47.2,29.83,WNW,294,8.0,12.0,90,0.00,,---,0.00,VWS V14.00,2013-02-14 05:40:00,
2013-02-14 00:45:00,49.9,47.1,29.83,WNW,287,12.0,12.0,90,0.00,,---,0.00,VWS V14.00,2013-02-14 05:45:00,
2013-02-14 00:50:00,49.9,47.1,29.83,WNW,283,6.0,13.0,90,0.00,,---,0.00,VWS V14.00,2013-02-14 05:50:00,
2013-02-14 00:55:00,49.8,47.0,29.82,WNW,291,9.0,13.0,90,0.00,,---,0.00,VWS V14.00,2013-02-14 05:55:00,
2013-02-14 01:00:00,49.7,46.9,29.82,WNW,292,6.0,9.0,90,0.00,,---,0.00,VWS V14.00,2013-02-14 06:00:00,
2013-02-14 01:05:00,49.6,46.8,29.82,NW,315,8.0,11.0,90,0.00,,---,0.00,VWS V14.00,2013-02-14 06:05:00,
2013-02-14 01:10:00,49.5,46.7,29.82,WNW,297,6.0,11.0,90,0.00,,---,0.00,VWS V14.00,2013-02-14 06:10:00,
2013-02-14 01:15:00,49.4,46.6,29.82,WNW,285,4.0,11.0,90,0.00,,---,0.00,VWS V14.00,2013-02-14 06:15:00,
2013-02-14 01:20:00,49.2,46.4,29.83,WNW,296,7.0,11.0,90,0.00,,---,0.00,VWS V14.00,2013-02-14 06:20:00,
2013-02-14 01:25:00,49.1,46.6,29.83,West,271,7.0,11.0,91,0.00,,---,0.00,VWS V14.00,2013-02-14 06:25:00,
2013-02-14 01:30:00,49.0,46.5,29.82,NW,306,4.0,9.0,91,0.00,,---,0.00,VWS V14.00,2013-02-14 06:30:00,
2013-02-14 01:35:00,48.9,46.4,29.83,WNW,289,4.0,10.0,91,0.00,,---,0.00,VWS V14.00,2013-02-14 06:35:00,
2013-02-14 01:40:00,48.8,46.3,29.83,West,277,2.0,10.0,91,0.00,,---,0.00,VWS V14.00,2013-02-14 06:40:00,
2013-02-14 01:45:00,48.8,46.3,29.84,WNW,296,5.0,10.0,91,0.00,,---,0.00,VWS V14.00,2013-02-14 06:45:00,
2013-02-14 01:50:00,48.7,46.2,29.83,NW,308,3.0,10.0,91,0.00,,---,0.00,VWS V14.00,2013-02-14 06:50:00,
2013-02-14 01:55:00,48.6,46.1,29.84,WNW,291,4.0,10.0,91,0.00,,---,0.00,VWS V14.00,2013-02-14 06:55:00,
2013-02-14 02:00:00,48.5,46.0,29.84,West,276,5.0,9.0,91,0.00,,---,0.00,VWS V14.00,2013-02-14 07:00:00,
2013-02-14 02:05:00,48.4,45.9,29.84,NW,317,6.0,10.0,91,0.00,,---,0.00,VWS V14.00,2013-02-14 07:05:00,
2013-02-14 02:10:00,48.3,45.8,29.84,WNW,301,5.0,10.0,91,0.00,,---,0.00,VWS V14.00,2013-02-14 07:10:00,
2013-02-14 02:15:00,48.2,45.4,29.84,NW,310,4.0,10.0,90,0.00,,---,0.00,VWS V14.00,2013-02-14 07:15:00,
2013-02-14 02:20:00,48.1,45.3,29.84,NW,319,5.0,10.0,90,0.00,,---,0.00,VWS V14.00,2013-02-14 07:20:00,
2013-02-14 02:25:00,48.0,45.2,29.84,NW,325,7.0,10.0,90,0.00,,---,0.00,VWS V14.00,2013-02-14 07:25:00,
2013-02-14 02:30:00,47.9,45.1,29.85,NW,309,5.0,10.0,90,0.00,,---,0.00,VWS V14.00,2013-02-14 07:30:00,
2013-02-14 02:35:00,47.8,45.0,29.85,NW,317,4.0,10.0,90,0.00,,---,0.00,VWS V14.00,2013-02-14 07:35:00,
2013-02-14 02:40:00,47.8,45.0,29.85,NW,318,8.0,10.0,90,0.00,,---,0.00,VWS V14.00,2013-02-14 07:40:00,
2013-02-14 02:45:00,47.7,44.6,29.86,WNW,297,5.0,10.0,89,0.00,,---,0.00,VWS V14.00,2013-02-14 07:45:00,
2013-02-14 02:50:00,47.5,44.4,29.86,NW,325,5.0,10.0,89,0.00,,---,0.00,VWS V14.00,2013-02-14 07:50:00,
2013-02-14 02:55:00,47.3,44.2,29.87,NW,306,5.0,10.0,89,0.00,,---,0.00,VWS V14.00,2013-02-14 07:55:00,
2013-02-14 03:00:00,47.1,44.0,29.87,NW,325,4.0,8.0,89,0.00,,---,0.00,VWS V14.00,2013-02-14 08:00:00,
2013-02-14 03:05:00,46.9,43.8,29.87,NNW,330,5.0,8.0,89,0.00,,---,0.00,VWS V14.00,2013-02-14 08:05:00,
2013-02-14 03:10:00,46.7,43.0,29.88,North,4,6.0,10.0,87,0.00,,---,0.00,VWS V14.00,2013-02-14 08:10:00,
2013-02-14 03:15:00,46.6,42.6,29.89,NNW,330,6.0,10.0,86,0.00,,---,0.00,VWS V14.00,2013-02-14 08:15:00,
2013-02-14 03:20:00,46.5,42.5,29.89,NW,312,2.0,10.0,86,0.00,,---,0.00,VWS V14.00,2013-02-14 08:20:00,
2013-02-14 03:26:00,46.3,41.7,29.89,NW,318,6.0,7.0,84,0.00,,---,0.00,VWS V14.00,2013-02-14 08:26:00,
2013-02-14 03:31:00,46.1,40.9,29.90,NNW,342,6.0,9.0,82,0.00,,---,0.00,VWS V14.00,2013-02-14 08:31:00,
2013-02-14 03:36:00,45.8,40.6,29.90,NW,325,6.0,9.0,82,0.00,,---,0.00,VWS V14.00,2013-02-14 08:36:00,
2013-02-14 03:41:00,45.6,39.8,29.90,NNW,339,6.0,10.0,80,0.00,,---,0.00,VWS V14.00,2013-02-14 08:41:00,
2013-02-14 03:46:00,45.2,39.4,29.90,NNW,330,6.0,10.0,80,0.00,,---,0.00,VWS V14.00,2013-02-14 08:46:00,
2013-02-14 03:51:00,45.1,39.3,29.91,NW,316,4.0,10.0,80,0.00,,---,0.00,VWS V14.00,2013-02-14 08:51:00,
2013-02-14 03:56:00,44.8,39.0,29.91,NW,321,6.0,10.0,80,0.00,,---,0.00,VWS V14.00,2013-02-14 08:56:00,
2013-02-14 04:01:00,44.6,38.8,29.91,WNW,299,7.0,7.0,80,0.00,,---,0.00,VWS V14.00,2013-02-14 09:01:00,
2013-02-14 04:06:00,44.3,38.8,29.91,WNW,299,5.0,7.0,81,0.00,,---,0.00,VWS V14.00,2013-02-14 09:06:00,
2013-02-14 04:11:00,44.1,38.7,29.92,NW,314,3.0,7.0,81,0.00,,---,0.00,VWS V14.00,2013-02-14 09:11:00,
2013-02-14 04:16:00,43.9,38.5,29.92,NW,312,3.0,7.0,81,0.00,,---,0.00,VWS V14.00,2013-02-14 09:16:00,
2013-02-14 04:21:00,43.7,38.3,29.92,WNW,302,2.0,7.0,81,0.00,,---,0.00,VWS V14.00,2013-02-14 09:21:00,
2013-02-14 04:26:00,43.5,38.1,29.93,NW,308,3.0,7.0,81,0.00,,---,0.00,VWS V14.00,2013-02-14 09:26:00,
2013-02-14 04:31:00,43.3,37.9,29.93,NW,308,2.0,4.0,81,0.00,,---,0.00,VWS V14.00,2013-02-14 09:31:00,
2013-02-14 04:36:00,43.1,37.7,29.93,NW,308,1.0,4.0,81,0.00,,---,0.00,VWS V14.00,2013-02-14 09:36:00,
2013-02-14 04:41:00,42.9,37.8,29.94,NW,308,2.0,4.0,82,0.00,,---,0.00,VWS V14.00,2013-02-14 09:41:00,
2013-02-14 04:46:00,42.9,37.8,29.95,NW,308,1.0,4.0,82,0.00,,---,0.00,VWS V14.00,2013-02-14 09:46:00,
2013-02-14 04:51:00,42.7,37.9,29.95,NW,308,0.0,4.0,83,0.00,,---,0.00,VWS V14.00,2013-02-14 09:51:00,
2013-02-14 04:56:00,42.3,37.8,29.95,NW,308,0.0,4.0,84,0.00,,---,0.00,VWS V14.00,2013-02-14 09:56:00,
2013-02-14 05:01:00,41.8,37.6,29.96,NW,308,0.0,1.0,85,0.00,,---,0.00,VWS V14.00,2013-02-14 10:01:00,
2013-02-14 05:05:00,41.6,37.7,29.95,NW,308,2.0,3.0,86,0.00,,---,0.00,VWS V14.00,2013-02-14 10:05:00,
2013-02-14 05:10:00,41.7,37.8,29.96,NW,308,0.0,3.0,86,0.00,,---,0.00,VWS V14.00,2013-02-14 10:10:00,
2013-02-14 05:15:00,41.6,37.7,29.96,NW,308,1.0,3.0,86,0.00,,---,0.00,VWS V14.00,2013-02-14 10:15:00,
2013-02-14 05:20:00,40.9,37.3,29.96,NW,308,1.0,3.0,87,0.00,,---,0.00,VWS V14.00,2013-02-14 10:20:00,
2013-02-14 05:25:00,40.3,37.3,29.96,NW,308,0.0,3.0,89,0.00,,---,0.00,VWS V14.00,2013-02-14 10:25:00,
2013-02-14 05:30:00,40.1,37.4,29.96,NW,308,0.0,0.0,90,0.00,,---,0.00,VWS V14.00,2013-02-14 10:30:00,
2013-02-14 05:36:00,40.2,37.5,29.96,NW,308,0.0,1.0,90,0.00,,---,0.00,VWS V14.00,2013-02-14 10:36:00,
2013-02-14 05:41:00,40.2,37.5,29.96,NW,308,1.0,2.0,90,0.00,,---,0.00,VWS V14.00,2013-02-14 10:41:00,
2013-02-14 05:46:00,40.1,37.4,29.95,NW,308,1.0,2.0,90,0.00,,---,0.00,VWS V14.00,2013-02-14 10:46:00,
2013-02-14 05:51:00,39.9,36.9,29.95,NW,308,0.0,2.0,89,0.00,,---,0.00,VWS V14.00,2013-02-14 10:51:00,
2013-02-14 05:56:00,39.8,36.8,29.95,NW,308,0.0,2.0,89,0.00,,---,0.00,VWS V14.00,2013-02-14 10:56:00,
2013-02-14 06:01:00,40.0,37.0,29.96,NW,308,2.0,3.0,89,0.00,,---,0.00,VWS V14.00,2013-02-14 11:01:00,
2013-02-14 06:06:00,40.2,36.9,29.96,NW,308,1.0,3.0,88,0.00,,---,0.00,VWS V14.00,2013-02-14 11:06:00,
2013-02-14 06:11:00,40.2,36.7,29.96,NW,308,2.0,3.0,87,0.00,,---,0.00,VWS V14.00,2013-02-14 11:11:00,
2013-02-14 06:16:00,40.1,36.5,29.97,NW,308,1.0,3.0,87,0.00,,---,0.00,VWS V14.00,2013-02-14 11:16:00,
2013-02-14 06:21:00,40.0,36.5,29.96,NW,308,0.0,3.0,87,0.00,,---,0.00,VWS V14.00,2013-02-14 11:21:00,
2013-02-14 06:26:00,39.9,36.3,29.97,NW,308,0.0,3.0,87,0.00,,---,0.00,VWS V14.00,2013-02-14 11:26:00,
2013-02-14 06:31:00,39.4,35.9,29.97,NW,308,0.0,2.0,87,0.00,,---,0.00,VWS V14.00,2013-02-14 11:31:00,
2013-02-14 06:36:00,38.7,35.5,29.97,NW,308,0.0,2.0,88,0.00,,---,0.00,VWS V14.00,2013-02-14 11:36:00,
2013-02-14 06:41:00,38.4,35.5,29.97,NW,308,1.0,2.0,89,0.00,,---,0.00,VWS V14.00,2013-02-14 11:41:00,
2013-02-14 06:46:00,38.6,35.6,29.97,NW,308,1.0,2.0,89,0.00,,---,0.00,VWS V14.00,2013-02-14 11:46:00,
2013-02-14 06:50:00,38.9,35.9,29.98,NW,308,0.0,2.0,89,0.00,,---,0.00,VWS V14.00,2013-02-14 11:50:00,
2013-02-14 06:56:00,38.9,35.9,29.98,NW,308,1.0,2.0,89,0.00,,---,0.00,VWS V14.00,2013-02-14 11:56:00,
2013-02-14 07:01:00,38.7,35.7,29.98,NW,308,1.0,2.0,89,0.00,,---,0.00,VWS V14.00,2013-02-14 12:01:00,
2013-02-14 07:06:00,38.5,35.5,29.99,NW,308,0.0,2.0,89,0.00,,---,0.00,VWS V14.00,2013-02-14 12:06:00,
2013-02-14 07:11:00,38.5,35.5,29.98,NW,308,2.0,3.0,89,0.00,,---,0.00,VWS V14.00,2013-02-14 12:11:00,
2013-02-14 07:16:00,38.6,35.6,29.98,NW,315,0.0,4.0,89,0.00,,---,0.00,VWS V14.00,2013-02-14 12:16:00,
2013-02-14 07:21:00,38.7,35.7,29.99,NW,315,0.0,4.0,89,0.00,,---,0.00,VWS V14.00,2013-02-14 12:21:00,
2013-02-14 07:26:00,38.8,35.8,29.98,NW,315,0.0,4.0,89,0.00,,---,0.00,VWS V14.00,2013-02-14 12:26:00,
2013-02-14 07:31:00,38.8,35.8,30.00,NW,315,0.0,0.0,89,0.00,,---,0.00,VWS V14.00,2013-02-14 12:31:00,
2013-02-14 07:36:00,38.7,36.0,30.00,NW,315,0.0,0.0,90,0.00,,---,0.00,VWS V14.00,2013-02-14 12:36:00,
2013-02-14 07:41:00,38.9,36.2,30.00,NW,315,0.0,1.0,90,0.00,,---,0.00,VWS V14.00,2013-02-14 12:41:00,
2013-02-14 07:46:00,39.7,37.0,30.00,NW,315,1.0,3.0,90,0.00,,---,0.00,VWS V14.00,2013-02-14 12:46:00,
2013-02-14 07:51:00,40.4,37.4,30.00,NW,315,1.0,3.0,89,0.00,,---,0.00,VWS V14.00,2013-02-14 12:51:00,
2013-02-14 07:56:00,41.0,37.7,30.01,NW,315,2.0,3.0,88,0.00,,---,0.00,VWS V14.00,2013-02-14 12:56:00,
2013-02-14 08:01:00,41.4,37.5,30.02,NW,311,2.0,4.0,86,0.00,,---,0.00,VWS V14.00,2013-02-14 13:01:00,
2013-02-14 08:06:00,42.0,38.1,30.02,NW,320,1.0,4.0,86,0.00,,---,0.00,VWS V14.00,2013-02-14 13:06:00,
2013-02-14 08:11:00,42.6,38.1,30.01,North,351,1.0,5.0,84,0.00,,---,0.00,VWS V14.00,2013-02-14 13:11:00,
2013-02-14 08:16:00,42.8,38.0,30.02,NNW,339,2.0,6.0,83,0.00,,---,0.00,VWS V14.00,2013-02-14 13:16:00,
2013-02-14 08:21:00,43.1,37.7,30.03,North,349,5.0,7.0,81,0.00,,---,0.00,VWS V14.00,2013-02-14 13:21:00,
2013-02-14 08:26:00,43.3,37.9,30.03,NNW,340,2.0,8.0,81,0.00,,---,0.00,VWS V14.00,2013-02-14 13:26:00,
2013-02-14 08:31:00,43.3,37.9,30.03,NNW,341,4.0,6.0,81,0.00,,---,0.00,VWS V14.00,2013-02-14 13:31:00,
2013-02-14 08:36:00,43.3,38.2,30.02,NNW,345,5.0,6.0,82,0.00,,---,0.00,VWS V14.00,2013-02-14 13:36:00,
2013-02-14 08:41:00,43.2,37.8,30.03,North,357,2.0,8.0,81,0.00,,---,0.00,VWS V14.00,2013-02-14 13:41:00,
2013-02-14 08:46:00,43.3,37.9,30.03,NNW,335,4.0,8.0,81,0.00,,---,0.00,VWS V14.00,2013-02-14 13:46:00,
2013-02-14 08:51:00,43.5,38.4,30.05,NNW,330,1.0,8.0,82,0.00,,---,0.00,VWS V14.00,2013-02-14 13:51:00,
2013-02-14 08:56:00,43.9,38.5,30.04,NNW,348,5.0,8.0,81,0.00,,---,0.00,VWS V14.00,2013-02-14 13:56:00,
2013-02-14 09:01:00,44.4,38.6,30.04,NW,325,7.0,9.0,80,0.00,,---,0.00,VWS V14.00,2013-02-14 14:01:00,
2013-02-14 09:06:00,44.8,39.0,30.04,NNW,346,6.0,9.0,80,0.00,,---,0.00,VWS V14.00,2013-02-14 14:06:00,
2013-02-14 09:11:00,45.1,39.0,30.04,North,358,3.0,9.0,79,0.00,,---,0.00,VWS V14.00,2013-02-14 14:11:00,
2013-02-14 09:16:00,45.2,38.1,30.03,North,352,10.0,13.0,76,0.00,,---,0.00,VWS V14.00,2013-02-14 14:16:00,
2013-02-14 09:21:00,45.3,38.2,30.03,NNE,23,10.0,13.0,76,0.00,,---,0.00,VWS V14.00,2013-02-14 14:21:00,
2013-02-14 09:26:00,45.5,38.4,30.03,North,351,11.0,14.0,76,0.00,,---,0.00,VWS V14.00,2013-02-14 14:26:00,
2013-02-14 09:31:00,45.5,38.4,30.03,North,4,4.0,10.0,76,0.00,,---,0.00,VWS V14.00,2013-02-14 14:31:00,
2013-02-14 09:36:00,45.7,38.9,30.03,North,356,8.0,11.0,77,0.00,,---,0.00,VWS V14.00,2013-02-14 14:36:00,
2013-02-14 09:41:00,45.8,39.0,30.03,North,8,7.0,12.0,77,0.00,,---,0.00,VWS V14.00,2013-02-14 14:41:00,
2013-02-14 09:46:00,45.7,38.2,30.04,NNW,335,8.0,13.0,75,0.00,,---,0.00,VWS V14.00,2013-02-14 14:46:00,
2013-02-14 09:51:00,45.9,38.8,30.04,NNE,13,5.0,13.0,76,0.00,,---,0.00,VWS V14.00,2013-02-14 14:51:00,
2013-02-14 09:56:00,45.9,38.4,30.05,NNE,19,10.0,13.0,75,0.00,,---,0.00,VWS V14.00,2013-02-14 14:56:00,
2013-02-14 10:01:00,46.1,38.6,30.05,North,358,7.0,12.0,75,0.00,,---,0.00,VWS V14.00,2013-02-14 15:01:00,
2013-02-14 10:06:00,46.4,38.9,30.04,NNE,22,10.0,14.0,75,0.00,,---,0.00,VWS V14.00,2013-02-14 15:06:00,
2013-02-14 10:11:00,46.4,38.2,30.05,NE,52,8.0,14.0,73,0.00,,---,0.00,VWS V14.00,2013-02-14 15:11:00,
2013-02-14 10:16:00,46.4,37.9,30.05,ENE,60,9.0,14.0,72,0.00,,---,0.00,VWS V14.00,2013-02-14 15:16:00,
2013-02-14 10:21:00,46.7,38.9,30.05,NE,43,5.0,14.0,74,0.00,,---,0.00,VWS V14.00,2013-02-14 15:21:00,
2013-02-14 10:26:00,47.3,39.1,30.06,North,1,6.0,14.0,73,0.00,,---,0.00,VWS V14.00,2013-02-14 15:26:00,
2013-02-14 10:31:00,47.6,38.7,30.05,North,4,8.0,13.0,71,0.00,,---,0.00,VWS V14.00,2013-02-14 15:31:00,
2013-02-14 10:36:00,47.5,38.6,30.05,North,4,9.0,13.0,71,0.00,,---,0.00,VWS V14.00,2013-02-14 15:36:00,
2013-02-14 10:41:00,47.5,38.6,30.04,North,5,8.0,13.0,71,0.00,,---,0.00,VWS V14.00,2013-02-14 15:41:00,
2013-02-14 10:46:00,47.9,38.6,30.04,NNE,19,7.0,13.0,70,0.00,,---,0.00,VWS V14.00,2013-02-14 15:46:00,
2013-02-14 10:51:00,48.1,38.8,30.04,NNE,22,10.0,13.0,70,0.00,,---,0.00,VWS V14.00,2013-02-14 15:51:00,
2013-02-14 10:56:00,48.0,38.3,30.04,NE,37,5.0,13.0,69,0.00,,---,0.00,VWS V14.00,2013-02-14 15:56:00,
2013-02-14 11:01:00,48.1,38.0,30.04,ENE,62,8.0,8.0,68,0.00,,---,0.00,VWS V14.00,2013-02-14 16:01:00,
2013-02-14 11:06:00,48.2,38.2,30.04,North,0,7.0,10.0,68,0.00,,---,0.00,VWS V14.00,2013-02-14 16:06:00,
2013-02-14 11:11:00,48.5,38.8,30.04,NNE,14,11.0,11.0,69,0.00,,---,0.00,VWS V14.00,2013-02-14 16:11:00,
2013-02-14 11:16:00,48.4,37.6,30.04,North,359,5.0,11.0,66,0.00,,---,0.00,VWS V14.00,2013-02-14 16:16:00,
2013-02-14 11:21:00,48.3,37.9,30.05,NNW,346,6.0,11.0,67,0.00,,---,0.00,VWS V14.00,2013-02-14 16:21:00,
2013-02-14 11:26:00,48.3,37.9,30.05,North,354,8.0,11.0,67,0.00,,---,0.00,VWS V14.00,2013-02-14 16:26:00,
2013-02-14 11:31:00,48.4,38.0,30.06,North,355,5.0,8.0,67,0.00,,---,0.00,VWS V14.00,2013-02-14 16:31:00,
2013-02-14 11:36:00,48.6,37.8,30.05,NNE,31,5.0,8.0,66,0.00,,---,0.00,VWS V14.00,2013-02-14 16:36:00,
2013-02-14 11:41:00,48.5,37.7,30.04,NE,36,2.0,8.0,66,0.00,,---,0.00,VWS V14.00,2013-02-14 16:41:00,
2013-02-14 11:46:00,48.6,37.4,30.05,NNW,345,3.0,9.0,65,0.00,,---,0.00,VWS V14.00,2013-02-14 16:46:00,
2013-02-14 11:51:00,48.6,37.4,30.05,ENE,65,1.0,9.0,65,0.00,,---,0.00,VWS V14.00,2013-02-14 16:51:00,
2013-02-14 11:56:00,48.6,38.2,30.05,NE,46,4.0,9.0,67,0.00,,---,0.00,VWS V14.00,2013-02-14 16:56:00,
2013-02-14 12:01:00,48.8,38.0,30.05,WNW,300,7.0,7.0,66,0.00,,---,0.00,VWS V14.00,2013-02-14 17:01:00,
2013-02-14 12:06:00,49.1,38.2,30.05,North,7,7.0,9.0,66,0.00,,---,0.00,VWS V14.00,2013-02-14 17:06:00,
2013-02-14 12:11:00,49.2,38.0,30.05,NNE,28,3.0,9.0,65,0.00,,---,0.00,VWS V14.00,2013-02-14 17:11:00,
2013-02-14 12:16:00,49.1,37.9,30.05,NNW,341,3.0,9.0,65,0.00,,---,0.00,VWS V14.00,2013-02-14 17:16:00,
2013-02-14 12:21:00,49.1,37.9,30.05,NE,47,4.0,9.0,65,0.00,,---,0.00,VWS V14.00,2013-02-14 17:21:00,
2013-02-14 12:26:00,49.4,38.5,30.05,WNW,292,4.0,9.0,66,0.00,,---,0.00,VWS V14.00,2013-02-14 17:26:00,
2013-02-14 12:31:00,49.4,38.9,30.05,North,354,4.0,7.0,67,0.00,,---,0.00,VWS V14.00,2013-02-14 17:31:00,
2013-02-14 12:36:00,49.6,38.3,30.04,North,7,5.0,7.0,65,0.00,,---,0.00,VWS V14.00,2013-02-14 17:36:00,
2013-02-14 12:41:00,49.7,38.4,30.04,NW,325,8.0,8.0,65,0.00,,---,0.00,VWS V14.00,2013-02-14 17:41:00,
2013-02-14 12:46:00,49.7,38.4,30.03,North,2,5.0,8.0,65,0.00,,---,0.00,VWS V14.00,2013-02-14 17:46:00,
2013-02-14 12:51:00,49.8,38.1,30.03,North,2,3.0,8.0,64,0.00,,---,0.00,VWS V14.00,2013-02-14 17:51:00,
2013-02-14 12:56:00,49.7,38.0,30.03,North,7,4.0,8.0,64,0.00,,---,0.00,VWS V14.00,2013-02-14 17:56:00,
2013-02-14 13:01:00,49.9,38.2,30.03,NW,307,4.0,7.0,64,0.00,,---,0.00,VWS V14.00,2013-02-14 18:01:00,
2013-02-14 13:06:00,49.7,37.2,30.03,WNW,295,5.0,7.0,62,0.00,,---,0.00,VWS V14.00,2013-02-14 18:06:00,
2013-02-14 13:11:00,49.8,37.3,30.03,NW,320,5.0,7.0,62,0.00,,---,0.00,VWS V14.00,2013-02-14 18:11:00,
2013-02-14 13:16:00,49.8,37.7,30.04,WNW,299,3.0,7.0,63,0.00,,---,0.00,VWS V14.00,2013-02-14 18:16:00,
2013-02-14 13:21:00,49.8,37.7,30.04,NNW,346,2.0,7.0,63,0.00,,---,0.00,VWS V14.00,2013-02-14 18:21:00,
2013-02-14 13:26:00,50.2,38.5,30.04,NNW,335,3.0,7.0,64,0.00,,---,0.00,VWS V14.00,2013-02-14 18:26:00,
2013-02-14 13:31:00,50.4,38.7,30.04,North,359,4.0,5.0,64,0.00,,---,0.00,VWS V14.00,2013-02-14 18:31:00,
2013-02-14 13:36:00,50.3,37.8,30.03,North,2,3.0,6.0,62,0.00,,---,0.00,VWS V14.00,2013-02-14 18:36:00,
2013-02-14 13:41:00,50.4,38.3,30.03,NNW,335,2.0,6.0,63,0.00,,---,0.00,VWS V14.00,2013-02-14 18:41:00,
2013-02-14 13:46:00,50.6,38.5,30.02,North,1,0.0,6.0,63,0.00,,---,0.00,VWS V14.00,2013-02-14 18:46:00,
2013-02-14 13:51:00,50.7,38.2,30.02,NNE,23,6.0,7.0,62,0.00,,---,0.00,VWS V14.00,2013-02-14 18:51:00,
2013-02-14 13:56:00,50.4,38.3,30.01,NNE,18,1.0,7.0,63,0.00,,---,0.00,VWS V14.00,2013-02-14 18:56:00,
2013-02-14 14:01:00,50.6,38.9,30.01,North,4,4.0,5.0,64,0.00,,---,0.00,VWS V14.00,2013-02-14 19:01:00,
2013-02-14 14:06:00,50.5,38.0,30.00,North,2,0.0,8.0,62,0.00,,---,0.00,VWS V14.00,2013-02-14 19:06:00,
2013-02-14 14:11:00,50.8,38.3,30.00,North,354,4.0,8.0,62,0.00,,---,0.00,VWS V14.00,2013-02-14 19:11:00,
2013-02-14 14:16:00,51.0,38.5,30.01,NNW,346,0.0,8.0,62,0.00,,---,0.00,VWS V14.00,2013-02-14 19:16:00,
2013-02-14 14:21:00,51.3,39.2,30.01,North,358,7.0,8.0,63,0.00,,---,0.00,VWS V14.00,2013-02-14 19:21:00,
2013-02-14 14:26:00,51.2,38.6,30.02,NNW,330,4.0,8.0,62,0.00,,---,0.00,VWS V14.00,2013-02-14 19:26:00,
2013-02-14 14:31:00,51.1,39.0,30.02,NNW,330,0.0,1.0,63,0.00,,---,0.00,VWS V14.00,2013-02-14 19:31:00,
2013-02-14 14:36:00,51.0,38.5,30.02,WSW,247,2.0,5.0,62,0.00,,---,0.00,VWS V14.00,2013-02-14 19:36:00,
2013-02-14 14:41:00,50.9,38.4,30.02,SW,224,2.0,5.0,62,0.00,,---,0.00,VWS V14.00,2013-02-14 19:41:00,
2013-02-14 14:46:00,51.1,38.5,30.01,SW,224,0.0,5.0,62,0.00,,---,0.00,VWS V14.00,2013-02-14 19:46:00,
2013-02-14 14:51:00,51.6,39.8,30.02,West,260,0.0,5.0,64,0.00,,---,0.00,VWS V14.00,2013-02-14 19:51:00,
2013-02-14 14:56:00,52.2,40.0,30.02,SSE,162,3.0,5.0,63,0.00,,---,0.00,VWS V14.00,2013-02-14 19:56:00,
2013-02-14 15:01:00,52.0,39.4,30.02,SSE,151,3.0,5.0,62,0.00,,---,0.00,VWS V14.00,2013-02-14 20:01:00,
2013-02-14 15:06:00,51.6,39.0,30.02,SSW,193,2.0,5.0,62,0.00,,---,0.00,VWS V14.00,2013-02-14 20:06:00,
2013-02-14 15:11:00,51.8,39.2,30.02,SSE,156,1.0,5.0,62,0.00,,---,0.00,VWS V14.00,2013-02-14 20:11:00,
2013-02-14 15:16:00,52.2,40.0,30.02,ESE,108,0.0,5.0,63,0.00,,---,0.00,VWS V14.00,2013-02-14 20:16:00,
2013-02-14 15:21:00,52.7,40.9,30.02,ESE,109,6.0,7.0,64,0.00,,---,0.00,VWS V14.00,2013-02-14 20:21:00,
2013-02-14 15:26:00,51.7,41.1,30.02,SE,141,7.0,9.0,67,0.00,,---,0.00,VWS V14.00,2013-02-14 20:26:00,
2013-02-14 15:31:00,50.6,40.8,30.01,SSE,156,5.0,10.0,69,0.00,,---,0.00,VWS V14.00,2013-02-14 20:31:00,
2013-02-14 15:36:00,50.4,41.0,30.01,SE,125,6.0,10.0,70,0.00,,---,0.00,VWS V14.00,2013-02-14 20:36:00,
2013-02-14 15:41:00,50.5,40.7,30.01,SE,146,3.0,10.0,69,0.00,,---,0.00,VWS V14.00,2013-02-14 20:41:00,
2013-02-14 15:46:00,50.3,40.2,30.01,ESE,118,5.0,10.0,68,0.00,,---,0.00,VWS V14.00,2013-02-14 20:46:00,
2013-02-14 15:51:00,50.5,40.7,30.00,SSE,147,4.0,10.0,69,0.00,,---,0.00,VWS V14.00,2013-02-14 20:51:00,
2013-02-14 15:56:00,50.3,40.9,30.00,SE,144,9.0,10.0,70,0.00,,---,0.00,VWS V14.00,2013-02-14 20:56:00,
2013-02-14 16:01:00,50.0,41.0,30.00,SE,140,6.0,8.0,71,0.00,,---,0.00,VWS V14.00,2013-02-14 21:01:00,
2013-02-14 16:06:00,50.2,41.5,30.00,SSE,158,6.0,8.0,72,0.00,,---,0.00,VWS V14.00,2013-02-14 21:06:00,
2013-02-14 16:11:00,49.9,40.9,30.01,SE,137,6.0,9.0,71,0.00,,---,0.00,VWS V14.00,2013-02-14 21:11:00,
2013-02-14 16:16:00,49.5,40.5,30.01,SE,140,5.0,9.0,71,0.00,,---,0.00,VWS V14.00,2013-02-14 21:16:00,
2013-02-14 16:21:00,49.4,40.4,30.01,SE,136,8.0,9.0,71,0.00,,---,0.00,VWS V14.00,2013-02-14 21:21:00,
2013-02-14 16:26:00,49.4,40.8,30.02,SSE,166,5.0,9.0,72,0.00,,---,0.00,VWS V14.00,2013-02-14 21:26:00,
2013-02-14 16:31:00,49.6,41.0,30.02,South,177,7.0,8.0,72,0.00,,---,0.00,VWS V14.00,2013-02-14 21:31:00,
2013-02-14 16:36:00,49.3,40.7,30.02,SE,146,7.0,8.0,72,0.00,,---,0.00,VWS V14.00,2013-02-14 21:36:00,
2013-02-14 16:41:00,48.9,40.6,30.03,SSE,148,5.0,8.0,73,0.00,,---,0.00,VWS V14.00,2013-02-14 21:41:00,
2013-02-14 16:46:00,48.7,40.8,30.03,South,170,5.0,8.0,74,0.00,,---,0.00,VWS V14.00,2013-02-14 21:46:00,
2013-02-14 16:51:00,48.7,40.8,30.03,SE,145,4.0,8.0,74,0.00,,---,0.00,VWS V14.00,2013-02-14 21:51:00,
2013-02-14 16:56:00,48.6,40.7,30.03,SE,138,2.0,8.0,74,0.00,,---,0.00,VWS V14.00,2013-02-14 21:56:00,
2013-02-14 17:01:00,48.5,40.6,30.03,SE,144,3.0,5.0,74,0.00,,---,0.00,VWS V14.00,2013-02-14 22:01:00,
2013-02-14 17:06:00,48.3,40.8,30.04,SSE,154,3.0,5.0,75,0.00,,---,0.00,VWS V14.00,2013-02-14 22:06:00,
2013-02-14 17:11:00,48.2,40.3,30.03,SE,139,3.0,5.0,74,0.00,,---,0.00,VWS V14.00,2013-02-14 22:11:00,
2013-02-14 17:16:00,48.2,40.7,30.03,SE,137,3.0,5.0,75,0.00,,---,0.00,VWS V14.00,2013-02-14 22:16:00,
2013-02-14 17:21:00,48.0,40.5,30.04,SSE,148,2.0,5.0,75,0.00,,---,0.00,VWS V14.00,2013-02-14 22:21:00,
2013-02-14 17:26:00,47.9,40.7,30.04,SSE,148,1.0,5.0,76,0.00,,---,0.00,VWS V14.00,2013-02-14 22:26:00,
2013-02-14 17:31:00,47.8,41.0,30.03,SSE,148,2.0,2.0,77,0.00,,---,0.00,VWS V14.00,2013-02-14 22:31:00,
2013-02-14 17:36:00,47.5,41.0,30.03,SSE,148,4.0,5.0,78,0.00,,---,0.00,VWS V14.00,2013-02-14 22:36:00,
2013-02-14 17:41:00,47.3,41.1,30.04,SSE,148,0.0,5.0,79,0.00,,---,0.00,VWS V14.00,2013-02-14 22:41:00,
2013-02-14 17:46:00,47.0,40.8,30.03,SSE,148,2.0,5.0,79,0.00,,---,0.00,VWS V14.00,2013-02-14 22:46:00,
2013-02-14 17:51:00,46.8,41.3,30.03,SSE,148,1.0,5.0,81,0.00,,---,0.00,VWS V14.00,2013-02-14 22:51:00,
2013-02-14 17:56:00,46.6,40.8,30.03,SSE,148,0.0,5.0,80,0.00,,---,0.00,VWS V14.00,2013-02-14 22:56:00,
2013-02-14 18:01:00,46.5,41.0,30.03,SSE,148,0.0,1.0,81,0.00,,---,0.00,VWS V14.00,2013-02-14 23:01:00,
2013-02-14 18:06:00,46.3,41.1,30.03,SSE,148,0.0,1.0,82,0.00,,---,0.00,VWS V14.00,2013-02-14 23:06:00,
2013-02-14 18:11:00,46.0,40.8,30.03,SSE,148,0.0,1.0,82,0.00,,---,0.00,VWS V14.00,2013-02-14 23:11:00,
2013-02-14 18:16:00,45.8,40.6,30.03,SSE,148,0.0,1.0,82,0.00,,---,0.00,VWS V14.00,2013-02-14 23:16:00,
2013-02-14 18:21:00,45.7,40.5,30.03,SSE,148,0.0,1.0,82,0.00,,---,0.00,VWS V14.00,2013-02-14 23:21:00,
2013-02-14 18:26:00,45.6,40.7,30.03,SSE,148,0.0,1.0,83,0.00,,---,0.00,VWS V14.00,2013-02-14 23:26:00,
2013-02-14 18:31:00,45.2,41.0,30.05,SSE,148,2.0,3.0,85,0.00,,---,0.00,VWS V14.00,2013-02-14 23:31:00,
2013-02-14 18:36:00,44.6,40.7,30.05,SSE,148,2.0,3.0,86,0.00,,---,0.00,VWS V14.00,2013-02-14 23:36:00,
2013-02-14 18:41:00,44.2,40.6,30.06,SSE,148,1.0,3.0,87,0.00,,---,0.00,VWS V14.00,2013-02-14 23:41:00,
2013-02-14 18:46:00,44.1,40.5,30.06,SSE,149,2.0,3.0,87,0.00,,---,0.00,VWS V14.00,2013-02-14 23:46:00,
2013-02-14 18:51:00,44.2,40.6,30.06,SE,143,2.0,3.0,87,0.00,,---,0.00,VWS V14.00,2013-02-14 23:51:00,
2013-02-14 18:56:00,44.4,40.5,30.06,SSE,147,0.0,3.0,86,0.00,,---,0.00,VWS V14.00,2013-02-14 23:56:00,
2013-02-14 19:01:00,44.5,40.6,30.06,SSE,148,0.0,1.0,86,0.00,,---,0.00,VWS V14.00,2013-02-15 00:01:00,
2013-02-14 19:06:00,44.3,40.4,30.06,SSE,148,0.0,1.0,86,0.00,,---,0.00,VWS V14.00,2013-02-15 00:06:00,
2013-02-14 19:11:00,44.2,40.0,30.06,SSE,148,0.0,1.0,85,0.00,,---,0.00,VWS V14.00,2013-02-15 00:11:00,
2013-02-14 19:16:00,44.1,39.9,30.07,SSE,148,0.0,1.0,85,0.00,,---,0.00,VWS V14.00,2013-02-15 00:16:00,
2013-02-14 19:21:00,44.0,40.1,30.06,SSE,148,0.0,1.0,86,0.00,,---,0.00,VWS V14.00,2013-02-15 00:21:00,
2013-02-14 19:26:00,43.9,40.0,30.06,SSE,147,0.0,1.0,86,0.00,,---,0.00,VWS V14.00,2013-02-15 00:26:00,
2013-02-14 19:31:00,43.7,40.1,30.06,SSE,148,0.0,0.0,87,0.00,,---,0.00,VWS V14.00,2013-02-15 00:31:00,
2013-02-14 19:36:00,43.4,39.8,30.06,SSE,148,0.0,0.0,87,0.00,,---,0.00,VWS V14.00,2013-02-15 00:36:00,
2013-02-14 19:41:00,43.1,39.8,30.05,SSE,148,0.0,0.0,88,0.00,,---,0.00,VWS V14.00,2013-02-15 00:41:00,
2013-02-14 19:46:00,43.0,40.0,30.05,SSE,148,0.0,1.0,89,0.00,,---,0.00,VWS V14.00,2013-02-15 00:46:00,
2013-02-14 19:51:00,42.9,39.9,30.05,SSE,148,0.0,1.0,89,0.00,,---,0.00,VWS V14.00,2013-02-15 00:51:00,
2013-02-14 19:56:00,42.4,39.1,30.05,SSE,147,0.0,1.0,88,0.00,,---,0.00,VWS V14.00,2013-02-15 00:56:00,
2013-02-14 20:01:00,42.1,39.1,30.06,SSE,147,0.0,0.0,89,0.00,,---,0.00,VWS V14.00,2013-02-15 01:01:00,
2013-02-14 20:06:00,41.7,39.0,30.06,SSE,148,0.0,0.0,90,0.00,,---,0.00,VWS V14.00,2013-02-15 01:06:00,
2013-02-14 20:11:00,41.4,38.7,30.07,SSE,148,0.0,0.0,90,0.00,,---,0.00,VWS V14.00,2013-02-15 01:11:00,
2013-02-14 20:16:00,41.4,39.0,30.07,SSE,148,0.0,0.0,91,0.00,,---,0.00,VWS V14.00,2013-02-15 01:16:00,
2013-02-14 20:21:00,41.0,38.6,30.06,SSE,148,0.0,0.0,91,0.00,,---,0.00,VWS V14.00,2013-02-15 01:21:00,
2013-02-14 20:26:00,40.6,38.2,30.08,SSE,148,0.0,1.0,91,0.00,,---,0.00,VWS V14.00,2013-02-15 01:26:00,
2013-02-14 20:31:00,40.4,38.0,30.08,SSE,148,0.0,0.0,91,0.00,,---,0.00,VWS V14.00,2013-02-15 01:31:00,
2013-02-14 20:36:00,40.3,38.2,30.08,SSE,148,0.0,0.0,92,0.00,,---,0.00,VWS V14.00,2013-02-15 01:36:00,
2013-02-14 20:41:00,40.4,38.3,30.08,SSE,147,0.0,0.0,92,0.00,,---,0.00,VWS V14.00,2013-02-15 01:41:00,
2013-02-14 20:46:00,40.6,38.7,30.08,SSE,148,0.0,0.0,93,0.00,,---,0.00,VWS V14.00,2013-02-15 01:46:00,
2013-02-14 20:51:00,40.7,38.8,30.08,SSE,148,0.0,0.0,93,0.00,,---,0.00,VWS V14.00,2013-02-15 01:51:00,
2013-02-14 20:56:00,40.7,38.8,30.08,SSE,148,0.0,0.0,93,0.00,,---,0.00,VWS V14.00,2013-02-15 01:56:00,
2013-02-14 21:01:00,40.7,38.8,30.09,SSE,148,0.0,0.0,93,0.00,,---,0.00,VWS V14.00,2013-02-15 02:01:00,
2013-02-14 21:06:00,40.7,38.8,30.08,SSE,148,0.0,0.0,93,0.00,,---,0.00,VWS V14.00,2013-02-15 02:06:00,
2013-02-14 21:11:00,40.6,38.7,30.09,SSE,148,0.0,0.0,93,0.00,,---,0.00,VWS V14.00,2013-02-15 02:11:00,
2013-02-14 21:16:00,40.4,38.5,30.10,SSE,148,0.0,1.0,93,0.00,,---,0.00,VWS V14.00,2013-02-15 02:16:00,
2013-02-14 21:21:00,40.1,38.0,30.09,SSE,148,1.0,1.0,92,0.00,,---,0.00,VWS V14.00,2013-02-15 02:21:00,
2013-02-14 21:26:00,39.7,37.6,30.09,SSE,148,0.0,1.0,92,0.00,,---,0.00,VWS V14.00,2013-02-15 02:26:00,
2013-02-14 21:31:00,39.6,37.8,30.09,SSE,148,0.0,0.0,93,0.00,,---,0.00,VWS V14.00,2013-02-15 02:31:00,
2013-02-14 21:36:00,39.7,37.8,30.09,SSE,148,0.0,0.0,93,0.00,,---,0.00,VWS V14.00,2013-02-15 02:36:00,
2013-02-14 21:41:00,39.7,37.8,30.08,SSE,148,0.0,0.0,93,0.00,,---,0.00,VWS V14.00,2013-02-15 02:41:00,
2013-02-14 21:46:00,39.7,37.8,30.09,SSE,148,0.0,0.0,93,0.00,,---,0.00,VWS V14.00,2013-02-15 02:46:00,
2013-02-14 21:51:00,39.4,37.5,30.09,SSE,147,0.0,0.0,93,0.00,,---,0.00,VWS V14.00,2013-02-15 02:51:00,
2013-02-14 21:56:00,39.3,37.5,30.09,SSE,148,0.0,0.0,93,0.00,,---,0.00,VWS V14.00,2013-02-15 02:56:00,
2013-02-14 22:01:00,39.3,37.5,30.08,SSE,148,0.0,0.0,93,0.00,,---,0.00,VWS V14.00,2013-02-15 03:01:00,
2013-02-14 22:06:00,39.4,37.8,30.08,SSE,148,0.0,1.0,94,0.00,,---,0.00,VWS V14.00,2013-02-15 03:06:00,
2013-02-14 22:11:00,39.7,38.1,30.07,SSE,148,0.0,1.0,94,0.00,,---,0.00,VWS V14.00,2013-02-15 03:11:00,
2013-02-14 22:16:00,39.9,38.3,30.07,SSE,147,0.0,1.0,94,0.00,,---,0.00,VWS V14.00,2013-02-15 03:16:00,
2013-02-14 22:21:00,39.8,38.2,30.07,SSE,148,0.0,1.0,94,0.00,,---,0.00,VWS V14.00,2013-02-15 03:21:00,
2013-02-14 22:26:00,39.4,37.5,30.07,SSE,148,0.0,1.0,93,0.00,,---,0.00,VWS V14.00,2013-02-15 03:26:00,
2013-02-14 22:31:00,39.1,37.2,30.06,SSE,148,0.0,0.0,93,0.00,,---,0.00,VWS V14.00,2013-02-15 03:31:00,
2013-02-14 22:36:00,39.1,37.2,30.06,SSE,148,0.0,0.0,93,0.00,,---,0.00,VWS V14.00,2013-02-15 03:36:00,
2013-02-14 22:41:00,39.2,37.6,30.06,SSE,147,0.0,1.0,94,0.00,,---,0.00,VWS V14.00,2013-02-15 03:41:00,
2013-02-14 22:46:00,39.2,37.6,30.06,SSE,148,0.0,1.0,94,0.00,,---,0.00,VWS V14.00,2013-02-15 03:46:00,
2013-02-14 22:51:00,39.1,37.5,30.06,SSE,148,0.0,1.0,94,0.00,,---,0.00,VWS V14.00,2013-02-15 03:51:00,
2013-02-14 22:56:00,38.9,37.3,30.06,SSE,147,0.0,2.0,94,0.00,,---,0.00,VWS V14.00,2013-02-15 03:56:00,
2013-02-14 23:01:00,39.0,37.4,30.07,SSE,148,1.0,2.0,94,0.00,,---,0.00,VWS V14.00,2013-02-15 04:01:00,
2013-02-14 23:06:00,39.1,37.5,30.06,SSE,147,0.0,2.0,94,0.00,,---,0.00,VWS V14.00,2013-02-15 04:06:00,
2013-02-14 23:11:00,39.0,37.2,30.05,SSE,148,0.0,2.0,93,0.00,,---,0.00,VWS V14.00,2013-02-15 04:11:00,
2013-02-14 23:16:00,38.7,36.8,30.06,SSE,148,0.0,2.0,93,0.00,,---,0.00,VWS V14.00,2013-02-15 04:16:00,
2013-02-14 23:21:00,38.2,36.4,30.06,SSE,148,0.0,2.0,93,0.00,,---,0.00,VWS V14.00,2013-02-15 04:21:00,
2013-02-14 23:26:00,37.6,35.8,30.06,SSE,148,0.0,2.0,93,0.00,,---,0.00,VWS V14.00,2013-02-15 04:26:00,
2013-02-14 23:31:00,37.4,35.6,30.06,SSE,148,0.0,0.0,93,0.00,,---,0.00,VWS V14.00,2013-02-15 04:31:00,
2013-02-14 23:36:00,37.3,35.7,30.06,SSE,148,0.0,0.0,94,0.00,,---,0.00,VWS V14.00,2013-02-15 04:36:00,
2013-02-14 23:41:00,37.5,35.9,30.07,SSE,148,0.0,0.0,94,0.00,,---,0.00,VWS V14.00,2013-02-15 04:41:00,
2013-02-14 23:46:00,37.6,36.0,30.07,SSE,148,0.0,0.0,94,0.00,,---,0.00,VWS V14.00,2013-02-15 04:46:00,
2013-02-14 23:51:00,37.6,36.0,30.07,SSE,148,0.0,0.0,94,0.00,,---,0.00,VWS V14.00,2013-02-15 04:51:00,
2013-02-14 23:56:00,37.1,35.3,30.07,SSE,148,0.0,1.0,93,0.00,,---,0.00,VWS V14.00,2013-02-15 04:56:00,